Time,TemperatureF,DewpointF,PressureIn,WindDirection,WindDirectionDegrees,WindSpeedMPH,WindSpeedGustMPH,Humidity,HourlyPrecipIn,Conditions,Clouds,dailyrainin,SoftwareType,DateUTC
2013-05-30 00:01:00,62.6,33.7,29.50,East,90,1.6,3.6,34,0.01,,,0.00,WUHU216HW,2013-05-30 05:01:00,
2013-05-30 00:06:00,62.6,33.7,29.50,SE,135,0.9,2.5,34,0.00,,,0.00,WUHU216HW,2013-05-30 05:06:00,
2013-05-30 00:11:00,62.6,33.7,29.50,East,90,1.3,2.5,34,0.00,,,0.00,WUHU216HW,2013-05-30 05:11:00,
2013-05-30 00:16:00,62.8,33.9,29.51,East,90,1.6,2.9,34,0.00,,,0.00,WUHU216HW,2013-05-30 05:16:00,
2013-05-30 00:21:00,62.8,33.9,29.51,SSE,158,1.8,4.5,34,0.00,,,0.00,WUHU216HW,2013-05-30 05:21:00,
2013-05-30 00:26:00,62.6,33.7,29.51,SSE,158,1.8,4.5,34,0.00,,,0.00,WUHU216HW,2013-05-30 05:26:00,
2013-05-30 00:31:00,62.6,33.7,29.51,South,180,1.1,3.1,34,0.00,,,0.00,WUHU216HW,2013-05-30 05:31:00,
2013-05-30 00:36:00,62.6,33.7,29.51,SSE,158,0.4,3.1,34,0.00,,,0.00,WUHU216HW,2013-05-30 05:36:00,
2013-05-30 00:41:00,62.6,33.7,29.50,SSE,158,1.3,3.6,34,0.00,,,0.00,WUHU216HW,2013-05-30 05:41:00,
2013-05-30 00:46:00,62.8,33.9,29.55,SW,225,7.6,9.8,34,0.00,,,0.00,WUHU216HW,2013-05-30 05:46:00,
2013-05-30 00:51:00,62.8,33.9,29.54,SW,225,5.4,9.8,34,0.00,,,0.00,WUHU216HW,2013-05-30 05:51:00,
2013-05-30 00:56:00,63.0,34.0,29.55,SSW,203,3.4,8.9,34,0.01,,,0.01,WUHU216HW,2013-05-30 05:56:00,
2013-05-30 01:01:00,62.8,33.9,29.54,SSW,203,1.8,5.4,34,0.02,,,0.02,WUHU216HW,2013-05-30 06:01:00,
2013-05-30 01:06:00,62.8,33.9,29.53,SW,225,4.3,5.6,34,0.03,,,0.03,WUHU216HW,2013-05-30 06:06:00,
2013-05-30 01:11:00,62.6,33.7,29.52,SSE,158,2.5,6.3,34,0.03,,,0.03,WUHU216HW,2013-05-30 06:11:00,
2013-05-30 01:16:00,62.6,33.7,29.52,SE,135,1.1,6.3,34,0.03,,,0.03,WUHU216HW,2013-05-30 06:16:00,
2013-05-30 01:21:00,62.6,33.7,29.51,South,180,0.7,3.8,34,0.03,,,0.03,WUHU216HW,2013-05-30 06:21:00,
2013-05-30 01:26:00,62.6,33.7,29.50,SSW,203,1.1,2.5,34,0.03,,,0.03,WUHU216HW,2013-05-30 06:26:00,
2013-05-30 01:31:00,62.6,33.7,29.52,ESE,113,1.1,2.5,34,0.03,,,0.03,WUHU216HW,2013-05-30 06:31:00,
2013-05-30 01:36:00,62.6,33.7,29.51,SSE,158,1.6,2.9,34,0.03,,,0.03,WUHU216HW,2013-05-30 06:36:00,
2013-05-30 01:41:00,62.6,33.7,29.51,SSW,203,1.3,3.4,34,0.03,,,0.03,WUHU216HW,2013-05-30 06:41:00,
2013-05-30 01:46:00,62.6,33.7,29.51,South,180,2.5,3.4,34,0.03,,,0.03,WUHU216HW,2013-05-30 06:46:00,
2013-05-30 01:51:00,62.5,33.5,29.49,East,90,4.0,4.0,34,0.03,,,0.03,WUHU216HW,2013-05-30 06:51:00,
2013-05-30 01:56:00,62.5,33.5,29.49,East,90,3.1,4.0,34,0.01,,,0.03,WUHU216HW,2013-05-30 06:56:00,
2013-05-30 02:01:00,62.5,33.5,29.47,ESE,113,2.7,5.1,34,0.00,,,0.03,WUHU216HW,2013-05-30 07:01:00,
2013-05-30 02:06:00,62.3,33.3,29.46,SSE,158,1.6,5.1,34,0.00,,,0.03,WUHU216HW,2013-05-30 07:06:00,
2013-05-30 02:11:00,62.3,33.3,29.46,East,90,4.7,5.1,34,0.00,,,0.03,WUHU216HW,2013-05-30 07:11:00,
2013-05-30 02:16:00,62.3,33.3,29.46,SSW,203,2.5,5.1,34,0.00,,,0.03,WUHU216HW,2013-05-30 07:16:00,
2013-05-30 02:21:00,62.3,33.3,29.46,West,270,1.8,5.1,34,0.00,,,0.03,WUHU216HW,2013-05-30 07:21:00,
2013-05-30 02:26:00,62.3,33.3,29.47,SSW,203,2.7,4.0,34,0.00,,,0.03,WUHU216HW,2013-05-30 07:26:00,
2013-05-30 02:31:00,62.1,33.2,29.46,SSE,158,2.5,3.8,34,0.00,,,0.03,WUHU216HW,2013-05-30 07:31:00,
2013-05-30 02:36:00,62.3,33.3,29.46,ESE,113,2.5,4.3,34,0.00,,,0.03,WUHU216HW,2013-05-30 07:36:00,
2013-05-30 02:41:00,62.1,33.2,29.45,WSW,248,3.1,6.3,34,0.00,,,0.03,WUHU216HW,2013-05-30 07:41:00,
2013-05-30 02:46:00,62.1,33.2,29.45,ESE,113,2.5,6.3,34,0.00,,,0.03,WUHU216HW,2013-05-30 07:46:00,
2013-05-30 02:51:00,62.1,33.2,29.45,SSE,158,1.6,5.6,34,0.00,,,0.03,WUHU216HW,2013-05-30 07:51:00,
2013-05-30 02:56:00,62.1,33.2,29.45,SSW,203,0.4,3.1,34,0.00,,,0.03,WUHU216HW,2013-05-30 07:56:00,
2013-05-30 03:01:00,62.1,33.2,29.46,East,90,2.7,3.1,34,0.00,,,0.03,WUHU216HW,2013-05-30 08:01:00,
2013-05-30 03:06:00,62.3,33.3,29.47,SSW,203,1.8,3.8,34,0.00,,,0.03,WUHU216HW,2013-05-30 08:06:00,
2013-05-30 03:11:00,62.3,33.3,29.48,SW,225,1.3,3.8,34,0.00,,,0.03,WUHU216HW,2013-05-30 08:11:00,
2013-05-30 03:16:00,62.3,33.3,29.47,SSW,203,1.8,4.7,34,0.00,,,0.03,WUHU216HW,2013-05-30 08:16:00,
2013-05-30 03:21:00,62.3,33.3,29.48,SSE,158,1.8,4.7,34,0.00,,,0.03,WUHU216HW,2013-05-30 08:21:00,
2013-05-30 03:27:00,62.3,33.3,29.49,South,180,1.3,3.6,34,0.00,,,0.03,WUHU216HW,2013-05-30 08:27:00,
2013-05-30 03:32:00,62.3,33.3,29.48,SSW,203,1.8,3.6,34,0.00,,,0.03,WUHU216HW,2013-05-30 08:32:00,
2013-05-30 03:37:00,62.3,33.3,29.48,South,180,1.8,3.4,34,0.00,,,0.03,WUHU216HW,2013-05-30 08:37:00,
2013-05-30 03:42:00,62.3,33.3,29.49,SE,135,2.0,4.0,34,0.00,,,0.03,WUHU216HW,2013-05-30 08:42:00,
2013-05-30 03:46:00,62.3,33.3,29.49,SSW,203,1.6,4.9,34,0.00,,,0.03,WUHU216HW,2013-05-30 08:46:00,
2013-05-30 03:51:00,62.3,33.3,29.48,WSW,248,1.3,4.9,34,0.00,,,0.03,WUHU216HW,2013-05-30 08:51:00,
2013-05-30 03:56:00,62.3,33.3,29.48,SSE,158,2.9,2.9,34,0.00,,,0.03,WUHU216HW,2013-05-30 08:56:00,
2013-05-30 04:01:00,62.3,32.6,29.48,SSW,203,3.4,3.4,33,0.00,,,0.03,WUHU216HW,2013-05-30 09:01:00,
2013-05-30 04:06:00,62.3,32.6,29.48,SSW,203,2.5,4.3,33,0.00,,,0.03,WUHU216HW,2013-05-30 09:06:00,
2013-05-30 04:11:00,62.3,32.6,29.48,SSE,158,3.4,4.3,33,0.00,,,0.03,WUHU216HW,2013-05-30 09:11:00,
2013-05-30 04:16:00,62.5,32.8,29.48,SE,135,2.9,3.6,33,0.00,,,0.03,WUHU216HW,2013-05-30 09:16:00,
2013-05-30 04:21:00,62.5,32.8,29.49,South,180,2.7,5.8,33,0.00,,,0.03,WUHU216HW,2013-05-30 09:21:00,
2013-05-30 04:26:00,62.5,32.8,29.49,South,180,1.8,5.8,33,0.00,,,0.03,WUHU216HW,2013-05-30 09:26:00,
2013-05-30 04:31:00,62.5,32.8,29.49,West,270,2.5,5.4,33,0.00,,,0.03,WUHU216HW,2013-05-30 09:31:00,
2013-05-30 04:36:00,62.3,32.6,29.49,SE,135,2.0,5.4,33,0.00,,,0.03,WUHU216HW,2013-05-30 09:36:00,
2013-05-30 04:41:00,62.3,32.6,29.50,WSW,248,4.7,5.4,33,0.00,,,0.03,WUHU216HW,2013-05-30 09:41:00,
2013-05-30 04:46:00,62.3,32.6,29.50,SSW,203,4.5,5.4,33,0.00,,,0.03,WUHU216HW,2013-05-30 09:46:00,
2013-05-30 04:52:00,62.1,33.2,29.50,SW,225,2.5,5.1,34,0.00,,,0.03,WUHU216HW,2013-05-30 09:52:00,
2013-05-30 04:56:00,62.1,33.2,29.51,SSE,158,3.8,6.3,34,0.00,,,0.03,WUHU216HW,2013-05-30 09:56:00,
2013-05-30 05:01:00,61.9,32.3,29.51,SSE,158,2.5,6.3,33,0.00,,,0.03,WUHU216HW,2013-05-30 10:01:00,
2013-05-30 05:07:00,61.9,32.3,29.51,SSE,158,2.7,5.8,33,0.00,,,0.03,WUHU216HW,2013-05-30 10:07:00,
2013-05-30 05:11:00,61.7,32.1,29.50,SSE,158,2.5,4.9,33,0.00,,,0.03,WUHU216HW,2013-05-30 10:11:00,
2013-05-30 05:16:00,61.6,32.7,29.50,SSE,158,2.7,4.7,34,0.00,,,0.03,WUHU216HW,2013-05-30 10:16:00,
2013-05-30 05:21:00,61.6,32.0,29.50,SSW,203,3.4,4.7,33,0.00,,,0.03,WUHU216HW,2013-05-30 10:21:00,
2013-05-30 05:26:00,61.4,31.8,29.51,SSW,203,3.4,4.7,33,0.00,,,0.03,WUHU216HW,2013-05-30 10:26:00,
2013-05-30 05:31:00,61.4,32.5,29.51,WSW,248,2.0,4.7,34,0.00,,,0.03,WUHU216HW,2013-05-30 10:31:00,
2013-05-30 05:36:00,61.2,31.7,29.50,SSE,158,1.8,4.9,33,0.00,,,0.03,WUHU216HW,2013-05-30 10:36:00,
2013-05-30 05:41:00,61.2,32.4,29.50,SW,225,2.5,4.9,34,0.00,,,0.03,WUHU216HW,2013-05-30 10:41:00,
2013-05-30 05:46:00,61.2,31.7,29.50,South,180,1.8,4.7,33,0.00,,,0.03,WUHU216HW,2013-05-30 10:46:00,
2013-05-30 05:51:00,61.2,32.4,29.50,SSE,158,1.1,5.1,34,0.00,,,0.03,WUHU216HW,2013-05-30 10:51:00,
2013-05-30 05:56:00,61.0,32.2,29.50,WSW,248,2.9,5.1,34,0.00,,,0.03,WUHU216HW,2013-05-30 10:56:00,
2013-05-30 06:01:00,61.2,31.7,29.49,SSE,158,3.4,4.7,33,0.00,,,0.03,WUHU216HW,2013-05-30 11:01:00,
2013-05-30 06:06:00,61.0,32.2,29.49,SSE,158,2.5,4.0,34,0.00,,,0.03,WUHU216HW,2013-05-30 11:06:00,
2013-05-30 06:11:00,61.2,32.4,29.48,South,180,3.6,4.0,34,0.00,,,0.03,WUHU216HW,2013-05-30 11:11:00,
2013-05-30 06:16:00,61.2,32.4,29.49,SW,225,5.1,6.9,34,0.00,,,0.03,WUHU216HW,2013-05-30 11:16:00,
2013-05-30 06:21:00,61.2,32.4,29.50,South,180,3.4,6.9,34,0.00,,,0.03,WUHU216HW,2013-05-30 11:21:00,
2013-05-30 06:26:00,61.2,32.4,29.50,SSE,158,1.8,6.9,34,0.00,,,0.03,WUHU216HW,2013-05-30 11:26:00,
2013-05-30 06:31:00,61.4,32.5,29.50,South,180,1.1,6.9,34,0.00,,,0.03,WUHU216HW,2013-05-30 11:31:00,
2013-05-30 06:36:00,61.4,32.5,29.50,SSW,203,1.8,4.7,34,0.00,,,0.03,WUHU216HW,2013-05-30 11:36:00,
2013-05-30 06:41:00,61.4,32.5,29.51,South,180,1.3,4.7,34,0.00,,,0.03,WUHU216HW,2013-05-30 11:41:00,
2013-05-30 06:46:00,61.6,32.7,29.51,SSE,158,2.2,3.1,34,0.00,,,0.03,WUHU216HW,2013-05-30 11:46:00,
2013-05-30 06:51:00,61.6,32.7,29.52,SW,225,1.6,4.9,34,0.00,,,0.03,WUHU216HW,2013-05-30 11:51:00,
2013-05-30 06:56:00,61.6,32.7,29.52,SW,225,3.1,4.9,34,0.00,,,0.03,WUHU216HW,2013-05-30 11:56:00,
2013-05-30 07:01:00,61.6,32.7,29.52,SSW,203,2.7,6.5,34,0.00,,,0.03,WUHU216HW,2013-05-30 12:01:00,
2013-05-30 07:06:00,61.9,33.0,29.52,East,90,2.7,6.5,34,0.00,,,0.03,WUHU216HW,2013-05-30 12:06:00,
2013-05-30 07:11:00,62.3,33.3,29.53,South,180,3.4,5.1,34,0.00,,,0.03,WUHU216HW,2013-05-30 12:11:00,
2013-05-30 07:16:00,62.6,33.7,29.53,SW,225,3.1,6.7,34,0.00,,,0.03,WUHU216HW,2013-05-30 12:16:00,
2013-05-30 07:21:00,63.0,34.0,29.52,SE,135,4.3,6.7,34,0.00,,,0.03,WUHU216HW,2013-05-30 12:21:00,
2013-05-30 07:26:00,62.8,34.6,29.52,SSW,203,2.0,4.9,35,0.00,,,0.03,WUHU216HW,2013-05-30 12:26:00,
2013-05-30 07:31:00,62.8,35.3,29.53,SSW,203,4.7,9.2,36,0.00,,,0.03,WUHU216HW,2013-05-30 12:31:00,
2013-05-30 07:36:00,62.6,35.1,29.53,SSW,203,2.9,9.2,36,0.00,,,0.03,WUHU216HW,2013-05-30 12:36:00,
2013-05-30 07:41:00,62.8,36.0,29.53,South,180,4.3,4.5,37,0.00,,,0.03,WUHU216HW,2013-05-30 12:41:00,
2013-05-30 07:46:00,62.6,35.8,29.53,SW,225,4.5,6.3,37,0.00,,,0.03,WUHU216HW,2013-05-30 12:46:00,
2013-05-30 07:51:00,62.8,36.0,29.52,SW,225,2.5,6.3,37,0.00,,,0.03,WUHU216HW,2013-05-30 12:51:00,
2013-05-30 07:56:00,62.8,36.7,29.53,South,180,2.5,6.9,38,0.00,,,0.03,WUHU216HW,2013-05-30 12:56:00,
2013-05-30 08:01:00,62.8,36.0,29.52,NW,315,2.7,6.9,37,0.00,,,0.03,WUHU216HW,2013-05-30 13:01:00,
2013-05-30 08:06:00,63.0,36.2,29.53,SW,225,1.6,7.2,37,0.00,,,0.03,WUHU216HW,2013-05-30 13:06:00,
2013-05-30 08:11:00,63.0,36.2,29.53,SE,135,1.1,7.2,37,0.00,,,0.03,WUHU216HW,2013-05-30 13:11:00,
2013-05-30 08:16:00,63.0,36.2,29.53,SSW,203,1.6,4.7,37,0.00,,,0.03,WUHU216HW,2013-05-30 13:16:00,
2013-05-30 08:21:00,63.0,36.2,29.53,WSW,248,2.9,4.5,37,0.00,,,0.03,WUHU216HW,2013-05-30 13:21:00,
2013-05-30 08:26:00,63.2,36.3,29.53,South,180,1.1,4.5,37,0.00,,,0.03,WUHU216HW,2013-05-30 13:26:00,
2013-05-30 08:31:00,63.2,36.3,29.53,SSW,203,2.2,4.5,37,0.00,,,0.03,WUHU216HW,2013-05-30 13:31:00,
2013-05-30 08:36:00,63.4,35.7,29.53,SSW,203,2.5,6.0,36,0.01,,,0.04,WUHU216HW,2013-05-30 13:36:00,
2013-05-30 08:41:00,63.7,36.1,29.53,South,180,1.6,6.0,36,0.01,,,0.04,WUHU216HW,2013-05-30 13:41:00,
2013-05-30 08:46:00,63.9,36.3,29.53,SSW,203,0.4,3.8,36,0.01,,,0.04,WUHU216HW,2013-05-30 13:46:00,
2013-05-30 08:51:00,63.9,36.3,29.53,SW,225,0.7,3.8,36,0.01,,,0.04,WUHU216HW,2013-05-30 13:51:00,
2013-05-30 08:56:00,63.9,36.3,29.54,South,180,1.3,3.4,36,0.01,,,0.04,WUHU216HW,2013-05-30 13:56:00,
2013-05-30 09:01:00,64.1,36.4,29.54,SW,225,0.2,3.4,36,0.01,,,0.04,WUHU216HW,2013-05-30 14:01:00,
2013-05-30 09:06:00,63.9,36.3,29.54,SSW,203,0.4,2.9,36,0.01,,,0.04,WUHU216HW,2013-05-30 14:06:00,
2013-05-30 09:11:00,64.1,36.4,29.54,SW,225,0.4,3.1,36,0.02,,,0.05,WUHU216HW,2013-05-30 14:11:00,
2013-05-30 09:16:00,64.1,35.6,29.54,SE,135,0.7,3.1,35,0.02,,,0.05,WUHU216HW,2013-05-30 14:16:00,
2013-05-30 09:21:00,64.3,35.8,29.54,SE,135,0.0,2.5,35,0.02,,,0.05,WUHU216HW,2013-05-30 14:21:00,
2013-05-30 09:27:00,64.3,35.1,29.54,SSE,158,1.6,1.6,34,0.02,,,0.05,WUHU216HW,2013-05-30 14:27:00,
2013-05-30 09:32:00,64.3,35.1,29.55,SSW,203,1.1,1.6,34,0.02,,,0.05,WUHU216HW,2013-05-30 14:32:00,
2013-05-30 09:37:00,64.1,34.9,29.55,SSW,203,0.2,1.8,34,0.01,,,0.05,WUHU216HW,2013-05-30 14:37:00,
2013-05-30 09:42:00,64.1,34.9,29.55,ESE,113,0.4,2.9,34,0.01,,,0.05,WUHU216HW,2013-05-30 14:42:00,
2013-05-30 09:47:00,64.1,34.9,29.55,SSE,158,0.4,2.9,34,0.02,,,0.06,WUHU216HW,2013-05-30 14:47:00,
2013-05-30 09:52:00,64.1,34.9,29.55,South,180,1.8,2.5,34,0.02,,,0.06,WUHU216HW,2013-05-30 14:52:00,
2013-05-30 09:57:00,63.7,34.7,29.55,SSE,158,1.1,3.4,34,0.02,,,0.06,WUHU216HW,2013-05-30 14:57:00,
2013-05-30 10:02:00,63.7,34.7,29.55,ESE,113,1.1,3.4,34,0.02,,,0.06,WUHU216HW,2013-05-30 15:02:00,
2013-05-30 10:07:00,63.7,34.7,29.55,SSW,203,2.5,3.4,34,0.01,,,0.06,WUHU216HW,2013-05-30 15:07:00,
2013-05-30 10:12:00,63.4,34.3,29.55,West,270,2.2,3.4,34,0.01,,,0.06,WUHU216HW,2013-05-30 15:12:00,
2013-05-30 10:17:00,63.4,34.3,29.54,SSW,203,1.6,2.7,34,0.01,,,0.06,WUHU216HW,2013-05-30 15:17:00,
2013-05-30 10:22:00,63.7,34.7,29.54,SSW,203,1.1,3.4,34,0.01,,,0.06,WUHU216HW,2013-05-30 15:22:00,
2013-05-30 10:27:00,64.1,34.9,29.54,SSE,158,1.3,3.4,34,0.01,,,0.06,WUHU216HW,2013-05-30 15:27:00,
2013-05-30 10:32:00,64.4,34.6,29.54,South,180,0.9,2.5,33,0.01,,,0.06,WUHU216HW,2013-05-30 15:32:00,
2013-05-30 10:37:00,65.0,35.0,29.54,South,180,1.1,3.8,33,0.01,,,0.06,WUHU216HW,2013-05-30 15:37:00,
2013-05-30 10:42:00,65.3,35.4,29.54,SSE,158,1.3,3.8,33,0.01,,,0.06,WUHU216HW,2013-05-30 15:42:00,
2013-05-30 10:47:00,66.2,36.9,29.55,SSW,203,0.9,2.7,34,0.00,,,0.06,WUHU216HW,2013-05-30 15:47:00,
2013-05-30 10:52:00,66.4,37.1,29.55,SW,225,0.7,2.9,34,0.00,,,0.06,WUHU216HW,2013-05-30 15:52:00,
2013-05-30 10:57:00,66.6,37.2,29.55,South,180,1.1,4.0,34,0.00,,,0.06,WUHU216HW,2013-05-30 15:57:00,
2013-05-30 11:02:00,67.3,38.5,29.55,SSE,158,0.4,4.0,35,0.00,,,0.06,WUHU216HW,2013-05-30 16:02:00,
2013-05-30 11:07:00,68.2,39.3,29.55,SSE,158,0.7,3.4,35,0.00,,,0.06,WUHU216HW,2013-05-30 16:07:00,
2013-05-30 11:12:00,68.2,40.1,29.55,SSW,203,2.5,3.8,36,0.00,,,0.06,WUHU216HW,2013-05-30 16:12:00,
2013-05-30 11:17:00,68.0,41.4,29.55,SE,135,2.0,3.8,38,0.00,,,0.06,WUHU216HW,2013-05-30 16:17:00,
2013-05-30 11:22:00,67.7,41.0,29.55,SSW,203,3.6,3.6,38,0.00,,,0.06,WUHU216HW,2013-05-30 16:22:00,
2013-05-30 11:27:00,67.3,40.8,29.55,South,180,1.6,3.6,38,0.00,,,0.06,WUHU216HW,2013-05-30 16:27:00,
2013-05-30 11:32:00,67.1,40.6,29.55,SSE,158,1.8,4.5,38,0.00,,,0.06,WUHU216HW,2013-05-30 16:32:00,
2013-05-30 11:37:00,67.1,40.6,29.55,SSE,158,1.8,4.5,38,0.00,,,0.06,WUHU216HW,2013-05-30 16:37:00,
2013-05-30 11:42:00,67.5,41.6,29.55,South,180,2.2,2.9,39,0.00,,,0.06,WUHU216HW,2013-05-30 16:42:00,
2013-05-30 11:47:00,67.7,41.8,29.54,East,90,1.8,3.6,39,0.00,,,0.06,WUHU216HW,2013-05-30 16:47:00,
2013-05-30 11:52:00,68.0,41.4,29.54,South,180,3.4,3.8,38,0.00,,,0.06,WUHU216HW,2013-05-30 16:52:00,
2013-05-30 11:57:00,68.8,43.5,29.53,SE,135,2.5,3.8,40,0.00,,,0.06,WUHU216HW,2013-05-30 16:57:00,
2013-05-30 12:02:00,70.4,44.9,29.53,WSW,248,2.2,3.6,40,0.00,,,0.06,WUHU216HW,2013-05-30 17:02:00,
2013-05-30 12:07:00,72.4,45.3,29.54,South,180,2.5,3.1,38,0.00,,,0.06,WUHU216HW,2013-05-30 17:07:00,
2013-05-30 12:12:00,73.6,51.5,29.53,South,180,4.0,5.1,46,0.00,,,0.06,WUHU216HW,2013-05-30 17:12:00,
2013-05-30 12:17:00,74.0,51.2,29.54,SSW,203,1.8,5.1,45,0.00,,,0.06,WUHU216HW,2013-05-30 17:17:00,
2013-05-30 12:22:00,74.7,51.3,29.54,SSW,203,2.5,4.3,44,0.00,,,0.06,WUHU216HW,2013-05-30 17:22:00,
2013-05-30 12:27:00,74.5,54.1,29.53,SSW,203,2.9,3.6,49,0.00,,,0.06,WUHU216HW,2013-05-30 17:27:00,
2013-05-30 12:32:00,74.2,53.2,29.54,SSW,203,1.6,3.4,48,0.00,,,0.06,WUHU216HW,2013-05-30 17:32:00,
2013-05-30 12:37:00,74.9,53.3,29.54,SE,135,3.4,4.0,47,0.00,,,0.06,WUHU216HW,2013-05-30 17:37:00,
2013-05-30 12:42:00,75.4,54.4,29.53,South,180,1.1,4.5,48,0.00,,,0.06,WUHU216HW,2013-05-30 17:42:00,
2013-05-30 12:47:00,75.4,56.1,29.53,ESE,113,2.0,4.5,51,0.00,,,0.06,WUHU216HW,2013-05-30 17:47:00,
2013-05-30 12:52:00,75.8,55.9,29.53,West,270,3.1,6.9,50,0.00,,,0.06,WUHU216HW,2013-05-30 17:52:00,
2013-05-30 12:57:00,76.0,57.1,29.52,East,90,3.4,6.9,52,0.00,,,0.06,WUHU216HW,2013-05-30 17:57:00,
2013-05-30 13:02:00,76.3,58.4,29.52,SSW,203,2.5,6.9,54,0.00,,,0.06,WUHU216HW,2013-05-30 18:02:00,
2013-05-30 13:07:00,76.5,59.1,29.52,South,180,2.9,6.9,55,0.00,,,0.06,WUHU216HW,2013-05-30 18:07:00,
2013-05-30 13:12:00,75.8,57.4,29.51,SSW,203,1.8,4.7,53,0.00,,,0.06,WUHU216HW,2013-05-30 18:12:00,
2013-05-30 13:17:00,75.6,57.2,29.51,SSW,203,1.8,4.0,53,0.00,,,0.06,WUHU216HW,2013-05-30 18:17:00,
2013-05-30 13:22:00,76.0,57.1,29.51,SSW,203,1.8,3.4,52,0.00,,,0.06,WUHU216HW,2013-05-30 18:22:00,
2013-05-30 13:27:00,77.2,59.2,29.51,SSE,158,4.7,4.7,54,0.00,,,0.06,WUHU216HW,2013-05-30 18:27:00,
2013-05-30 13:32:00,77.4,60.4,29.52,West,270,3.4,5.8,56,0.00,,,0.06,WUHU216HW,2013-05-30 18:32:00,
2013-05-30 13:37:00,77.4,60.4,29.52,SSE,158,1.8,5.8,56,0.00,,,0.06,WUHU216HW,2013-05-30 18:37:00,
2013-05-30 13:42:00,77.6,61.7,29.51,WSW,248,6.5,7.4,58,0.00,,,0.06,WUHU216HW,2013-05-30 18:42:00,
2013-05-30 13:47:00,77.4,61.9,29.51,West,270,3.4,7.4,59,0.00,,,0.06,WUHU216HW,2013-05-30 18:47:00,
2013-05-30 13:52:00,77.2,62.3,29.51,SSE,158,1.8,6.5,60,0.00,,,0.06,WUHU216HW,2013-05-30 18:52:00,
2013-05-30 13:57:00,77.4,62.5,29.50,SE,135,4.7,6.3,60,0.00,,,0.06,WUHU216HW,2013-05-30 18:57:00,
2013-05-30 14:02:00,77.8,63.3,29.50,SSW,203,2.5,4.9,61,0.00,,,0.06,WUHU216HW,2013-05-30 19:02:00,
2013-05-30 14:07:00,78.1,62.6,29.50,SSE,158,3.4,6.9,59,0.00,,,0.06,WUHU216HW,2013-05-30 19:07:00,
2013-05-30 14:12:00,78.5,63.0,29.50,SSE,158,2.5,6.9,59,0.00,,,0.06,WUHU216HW,2013-05-30 19:12:00,
2013-05-30 14:17:00,78.7,63.7,29.50,SE,135,2.5,5.6,60,0.00,,,0.06,WUHU216HW,2013-05-30 19:17:00,
2013-05-30 14:22:00,78.8,63.9,29.49,SSW,203,3.4,5.6,60,0.00,,,0.06,WUHU216HW,2013-05-30 19:22:00,
2013-05-30 14:27:00,78.8,63.9,29.49,ESE,113,2.9,4.7,60,0.00,,,0.06,WUHU216HW,2013-05-30 19:27:00,
2013-05-30 14:32:00,78.5,63.5,29.49,NW,315,1.8,4.9,60,0.00,,,0.06,WUHU216HW,2013-05-30 19:32:00,
2013-05-30 14:37:00,78.1,62.6,29.49,SSW,203,10.1,10.1,59,0.00,,,0.06,WUHU216HW,2013-05-30 19:37:00,
2013-05-30 14:42:00,77.4,62.5,29.49,SSW,203,2.9,10.1,60,0.00,,,0.06,WUHU216HW,2013-05-30 19:42:00,
2013-05-30 14:47:00,77.2,62.3,29.49,WSW,248,2.5,10.1,60,0.00,,,0.06,WUHU216HW,2013-05-30 19:47:00,
2013-05-30 14:52:00,77.2,62.3,29.49,SSW,203,3.1,6.5,60,0.00,,,0.06,WUHU216HW,2013-05-30 19:52:00,
2013-05-30 14:57:00,76.7,61.7,29.49,SSE,158,3.4,6.5,60,0.00,,,0.06,WUHU216HW,2013-05-30 19:57:00,
2013-05-30 15:02:00,76.9,61.9,29.49,WSW,248,1.8,4.7,60,0.00,,,0.06,WUHU216HW,2013-05-30 20:02:00,
2013-05-30 15:07:00,77.8,62.8,29.49,SE,135,4.7,6.9,60,0.00,,,0.06,WUHU216HW,2013-05-30 20:07:00,
2013-05-30 15:12:00,78.1,61.1,29.48,WSW,248,4.0,7.8,56,0.00,,,0.06,WUHU216HW,2013-05-30 20:12:00,
2013-05-30 15:17:00,78.7,63.2,29.48,South,180,3.8,7.8,59,0.00,,,0.06,WUHU216HW,2013-05-30 20:17:00,
2013-05-30 15:22:00,79.6,63.6,29.49,SE,135,3.6,6.9,58,0.00,,,0.06,WUHU216HW,2013-05-30 20:22:00,
2013-05-30 15:27:00,79.2,62.1,29.49,WNW,293,3.6,7.4,56,0.00,,,0.06,WUHU216HW,2013-05-30 20:27:00,
2013-05-30 15:32:00,78.8,62.8,29.49,WSW,248,4.0,9.2,58,0.00,,,0.06,WUHU216HW,2013-05-30 20:32:00,
2013-05-30 15:37:00,79.6,63.6,29.49,SSW,203,2.5,9.2,58,0.00,,,0.06,WUHU216HW,2013-05-30 20:37:00,
2013-05-30 15:42:00,79.6,63.0,29.50,West,270,6.3,6.3,57,0.00,,,0.06,WUHU216HW,2013-05-30 20:42:00,
2013-05-30 15:47:00,79.2,62.1,29.49,SW,225,6.3,9.2,56,0.00,,,0.06,WUHU216HW,2013-05-30 20:47:00,
2013-05-30 15:52:00,79.2,62.6,29.50,West,270,4.7,9.2,57,0.00,,,0.06,WUHU216HW,2013-05-30 20:52:00,
2013-05-30 15:57:00,79.6,63.6,29.50,SSW,203,5.8,8.5,58,0.00,,,0.06,WUHU216HW,2013-05-30 20:57:00,
2013-05-30 16:02:00,79.9,62.3,29.50,SW,225,9.2,9.2,55,0.00,,,0.06,WUHU216HW,2013-05-30 21:02:00,
2013-05-30 16:07:00,79.0,62.5,29.50,South,180,4.7,9.2,57,0.00,,,0.06,WUHU216HW,2013-05-30 21:07:00,
2013-05-30 16:12:00,78.7,62.2,29.50,SW,225,8.5,8.5,57,0.00,,,0.06,WUHU216HW,2013-05-30 21:12:00,
2013-05-30 16:17:00,78.5,63.0,29.49,WSW,248,9.2,9.2,59,0.00,,,0.06,WUHU216HW,2013-05-30 21:17:00,
2013-05-30 16:22:00,78.1,62.6,29.49,SSE,158,4.3,10.7,59,0.00,,,0.06,WUHU216HW,2013-05-30 21:22:00,
2013-05-30 16:27:00,77.9,62.5,29.49,West,270,5.4,10.7,59,0.00,,,0.06,WUHU216HW,2013-05-30 21:27:00,
2013-05-30 16:32:00,77.9,63.0,29.49,WSW,248,4.9,8.3,60,0.00,,,0.06,WUHU216HW,2013-05-30 21:32:00,
2013-05-30 16:37:00,77.9,63.0,29.49,WSW,248,3.8,7.2,60,0.00,,,0.06,WUHU216HW,2013-05-30 21:37:00,
2013-05-30 16:42:00,77.9,63.0,29.49,SSE,158,3.6,7.6,60,0.00,,,0.06,WUHU216HW,2013-05-30 21:42:00,
2013-05-30 16:47:00,78.1,62.6,29.49,SW,225,7.2,10.5,59,0.00,,,0.06,WUHU216HW,2013-05-30 21:47:00,
2013-05-30 16:52:00,77.9,62.5,29.49,SSW,203,3.4,10.5,59,0.00,,,0.06,WUHU216HW,2013-05-30 21:52:00,
2013-05-30 16:57:00,78.1,63.2,29.49,SW,225,2.5,9.2,60,0.00,,,0.06,WUHU216HW,2013-05-30 21:57:00,
2013-05-30 17:02:00,78.5,64.0,29.48,South,180,1.1,9.2,61,0.00,,,0.06,WUHU216HW,2013-05-30 22:02:00,
2013-05-30 17:07:00,78.8,63.4,29.48,SSW,203,3.6,5.4,59,0.00,,,0.06,WUHU216HW,2013-05-30 22:07:00,
2013-05-30 17:12:00,78.5,63.5,29.48,SSW,203,4.0,5.4,60,0.00,,,0.06,WUHU216HW,2013-05-30 22:12:00,
2013-05-30 17:17:00,78.3,63.4,29.48,SSE,158,2.0,5.4,60,0.00,,,0.06,WUHU216HW,2013-05-30 22:17:00,
2013-05-30 17:22:00,78.8,64.4,29.48,SSW,203,2.5,5.4,61,0.00,,,0.06,WUHU216HW,2013-05-30 22:22:00,
2013-05-30 17:27:00,78.5,63.5,29.47,SSE,158,1.8,4.7,60,0.00,,,0.06,WUHU216HW,2013-05-30 22:27:00,
2013-05-30 17:32:00,78.5,64.0,29.48,SSE,158,4.0,4.9,61,0.00,,,0.06,WUHU216HW,2013-05-30 22:32:00,
2013-05-30 17:37:00,78.5,64.0,29.48,South,180,2.5,8.7,61,0.00,,,0.06,WUHU216HW,2013-05-30 22:37:00,
2013-05-30 17:42:00,78.7,64.2,29.47,SW,225,2.5,8.7,61,0.00,,,0.06,WUHU216HW,2013-05-30 22:42:00,
2013-05-30 17:47:00,79.0,64.5,29.48,South,180,2.5,6.3,61,0.00,,,0.06,WUHU216HW,2013-05-30 22:47:00,
2013-05-30 17:52:00,78.7,63.7,29.48,SE,135,2.9,5.6,60,0.00,,,0.06,WUHU216HW,2013-05-30 22:52:00,
2013-05-30 17:57:00,78.7,64.2,29.48,WSW,248,4.3,7.6,61,0.00,,,0.06,WUHU216HW,2013-05-30 22:57:00,
2013-05-30 18:02:00,78.7,64.2,29.48,NNW,338,4.0,7.6,61,0.00,,,0.06,WUHU216HW,2013-05-30 23:02:00,
2013-05-30 18:07:00,77.9,63.5,29.47,ENE,68,2.5,5.8,61,0.00,,,0.06,WUHU216HW,2013-05-30 23:07:00,
2013-05-30 18:12:00,77.8,63.7,29.48,SSW,203,2.0,5.4,62,0.00,,,0.06,WUHU216HW,2013-05-30 23:12:00,
2013-05-30 18:17:00,77.8,63.7,29.48,WSW,248,6.3,6.9,62,0.00,,,0.06,WUHU216HW,2013-05-30 23:17:00,
2013-05-30 18:22:00,77.8,63.7,29.48,SSW,203,1.3,6.9,62,0.00,,,0.06,WUHU216HW,2013-05-30 23:22:00,
2013-05-30 18:27:00,77.4,63.4,29.48,SSE,158,2.7,6.0,62,0.00,,,0.06,WUHU216HW,2013-05-30 23:27:00,
2013-05-30 18:32:00,77.4,63.4,29.48,SSE,158,2.9,6.0,62,0.00,,,0.06,WUHU216HW,2013-05-30 23:32:00,
2013-05-30 18:37:00,77.2,63.2,29.48,SSE,158,4.5,5.1,62,0.00,,,0.06,WUHU216HW,2013-05-30 23:37:00,
2013-05-30 18:42:00,76.5,62.5,29.48,West,270,2.5,6.3,62,0.00,,,0.06,WUHU216HW,2013-05-30 23:42:00,
2013-05-30 18:47:00,75.6,62.1,29.48,SSE,158,3.6,6.5,63,0.00,,,0.06,WUHU216HW,2013-05-30 23:47:00,
2013-05-30 18:52:00,75.2,61.7,29.48,SSW,203,2.9,6.5,63,0.00,,,0.06,WUHU216HW,2013-05-30 23:52:00,
2013-05-30 18:57:00,74.9,61.5,29.48,WSW,248,3.1,4.5,63,0.00,,,0.06,WUHU216HW,2013-05-30 23:57:00,
2013-05-30 19:02:00,74.5,61.1,29.48,SSW,203,2.9,4.7,63,0.00,,,0.06,WUHU216HW,2013-05-31 00:02:00,
2013-05-30 19:07:00,74.2,60.8,29.47,SE,135,1.3,4.7,63,0.00,,,0.06,WUHU216HW,2013-05-31 00:07:00,
2013-05-30 19:12:00,74.0,60.6,29.49,SW,225,4.3,5.1,63,0.00,,,0.06,WUHU216HW,2013-05-31 00:12:00,
2013-05-30 19:17:00,73.6,58.9,29.49,West,270,2.5,5.1,60,0.03,,,0.09,WUHU216HW,2013-05-31 00:17:00,
2013-05-30 19:22:00,72.0,50.6,29.52,SSW,203,6.3,7.6,47,0.13,,,0.19,WUHU216HW,2013-05-31 00:22:00,
2013-05-30 19:27:00,70.7,48.9,29.50,South,180,4.9,7.6,46,0.20,,,0.26,WUHU216HW,2013-05-31 00:27:00,
2013-05-30 19:32:00,69.8,49.2,29.49,South,180,2.5,7.4,48,0.21,,,0.27,WUHU216HW,2013-05-31 00:32:00,
2013-05-30 19:37:00,68.8,48.2,29.49,East,90,1.8,4.5,48,0.21,,,0.27,WUHU216HW,2013-05-31 00:37:00,
2013-05-30 19:42:00,68.6,47.5,29.49,SSW,203,1.1,4.5,47,0.21,,,0.27,WUHU216HW,2013-05-31 00:42:00,
2013-05-30 19:47:00,68.6,46.9,29.49,SE,135,1.8,2.9,46,0.21,,,0.27,WUHU216HW,2013-05-31 00:47:00,
2013-05-30 19:52:00,68.8,47.6,29.49,SW,225,0.4,2.9,47,0.21,,,0.27,WUHU216HW,2013-05-31 00:52:00,
2013-05-30 19:57:00,69.3,48.2,29.49,SSW,203,1.1,2.7,47,0.21,,,0.27,WUHU216HW,2013-05-31 00:57:00,
2013-05-30 20:02:00,69.1,48.6,29.50,SSE,158,1.6,2.2,48,0.21,,,0.27,WUHU216HW,2013-05-31 01:02:00,
2013-05-30 20:07:00,68.8,48.9,29.51,SSW,203,1.8,2.0,49,0.21,,,0.27,WUHU216HW,2013-05-31 01:07:00,
2013-05-30 20:12:00,68.2,47.8,29.50,SE,135,0.7,2.7,48,0.21,,,0.27,WUHU216HW,2013-05-31 01:12:00,
2013-05-30 20:17:00,67.9,48.1,29.51,South,180,0.7,2.7,49,0.09,,,0.27,WUHU216HW,2013-05-31 01:17:00,
2013-05-30 20:22:00,67.5,46.5,29.51,SW,225,1.3,3.4,47,0.05,,,0.27,WUHU216HW,2013-05-31 01:22:00,
2013-05-30 20:27:00,67.1,45.6,29.52,South,180,3.1,4.9,46,0.01,,,0.27,WUHU216HW,2013-05-31 01:27:00,
2013-05-30 20:32:00,67.0,45.5,29.51,WSW,248,2.9,4.9,46,0.00,,,0.27,WUHU216HW,2013-05-31 01:32:00,
2013-05-30 20:37:00,66.6,46.3,29.52,SSW,203,10.1,10.1,48,0.00,,,0.27,WUHU216HW,2013-05-31 01:37:00,
2013-05-30 20:42:00,66.4,46.2,29.51,SSE,158,5.4,10.1,48,0.00,,,0.27,WUHU216HW,2013-05-31 01:42:00,
2013-05-30 20:47:00,66.2,45.4,29.51,SSW,203,4.3,10.1,47,0.00,,,0.27,WUHU216HW,2013-05-31 01:47:00,
2013-05-30 20:52:00,65.9,44.5,29.51,SSW,203,3.4,7.6,46,0.00,,,0.27,WUHU216HW,2013-05-31 01:52:00,
2013-05-30 20:57:00,65.5,43.5,29.51,SSW,203,2.9,6.9,45,0.00,,,0.27,WUHU216HW,2013-05-31 01:57:00,
2013-05-30 21:02:00,65.0,43.6,29.52,South,180,3.8,6.0,46,0.00,,,0.27,WUHU216HW,2013-05-31 02:02:00,
2013-05-30 21:07:00,64.8,44.0,29.52,SW,225,5.4,5.4,47,0.00,,,0.27,WUHU216HW,2013-05-31 02:07:00,
2013-05-30 21:12:00,64.4,44.2,29.52,SSE,158,1.6,5.4,48,0.00,,,0.27,WUHU216HW,2013-05-31 02:12:00,
2013-05-30 21:17:00,64.4,44.2,29.52,South,180,4.5,5.4,48,0.00,,,0.27,WUHU216HW,2013-05-31 02:17:00,
2013-05-30 21:22:00,64.1,44.5,29.53,WSW,248,1.1,4.5,49,0.00,,,0.27,WUHU216HW,2013-05-31 02:22:00,
2013-05-30 21:27:00,63.9,44.3,29.53,SSW,203,1.1,4.5,49,0.00,,,0.27,WUHU216HW,2013-05-31 02:27:00,
2013-05-30 21:32:00,63.7,44.1,29.54,SSW,203,0.9,2.9,49,0.00,,,0.27,WUHU216HW,2013-05-31 02:32:00,
2013-05-30 21:37:00,63.5,44.0,29.54,SW,225,1.1,2.9,49,0.00,,,0.27,WUHU216HW,2013-05-31 02:37:00,
2013-05-30 21:42:00,63.2,44.2,29.55,South,180,0.7,1.6,50,0.00,,,0.27,WUHU216HW,2013-05-31 02:42:00,
2013-05-30 21:47:00,62.8,43.9,29.55,SSW,203,0.9,1.8,50,0.00,,,0.27,WUHU216HW,2013-05-31 02:47:00,
2013-05-30 21:52:00,62.3,43.4,29.55,SSW,203,0.4,1.8,50,0.00,,,0.27,WUHU216HW,2013-05-31 02:52:00,
2013-05-30 21:57:00,61.9,42.5,29.55,South,180,1.1,1.8,49,0.00,,,0.27,WUHU216HW,2013-05-31 02:57:00,
2013-05-30 22:02:00,61.7,42.4,29.55,SSW,203,0.0,1.8,49,0.00,,,0.27,WUHU216HW,2013-05-31 03:02:00,
2013-05-30 22:07:00,61.6,42.2,29.55,SSW,203,0.0,1.1,49,0.00,,,0.27,WUHU216HW,2013-05-31 03:07:00,
2013-05-30 22:12:00,61.4,42.0,29.55,SSW,203,0.0,1.1,49,0.00,,,0.27,WUHU216HW,2013-05-31 03:12:00,
2013-05-30 22:17:00,61.0,41.7,29.55,SSW,203,0.4,1.3,49,0.00,,,0.27,WUHU216HW,2013-05-31 03:17:00,
2013-05-30 22:22:00,60.7,41.4,29.56,SW,225,0.0,1.3,49,0.00,,,0.27,WUHU216HW,2013-05-31 03:22:00,
2013-05-30 22:27:00,60.5,40.7,29.56,SSW,203,1.1,1.8,48,0.00,,,0.27,WUHU216HW,2013-05-31 03:27:00,
2013-05-30 22:32:00,60.5,40.7,29.56,WSW,248,1.1,1.8,48,0.00,,,0.27,WUHU216HW,2013-05-31 03:32:00,
2013-05-30 22:37:00,60.3,40.5,29.56,SSW,203,0.4,1.8,48,0.00,,,0.27,WUHU216HW,2013-05-31 03:37:00,
2013-05-30 22:42:00,60.3,40.5,29.57,WSW,248,1.1,1.8,48,0.00,,,0.27,WUHU216HW,2013-05-31 03:42:00,
2013-05-30 22:47:00,60.3,40.5,29.57,SSW,203,1.3,1.8,48,0.00,,,0.27,WUHU216HW,2013-05-31 03:47:00,
2013-05-30 22:52:00,60.1,40.3,29.57,SSW,203,1.1,2.0,48,0.00,,,0.27,WUHU216HW,2013-05-31 03:52:00,
2013-05-30 22:57:00,60.1,39.8,29.57,SSW,203,2.7,4.9,47,0.00,,,0.27,WUHU216HW,2013-05-31 03:57:00,
2013-05-30 23:01:00,60.1,39.8,29.57,SSE,158,1.8,4.9,47,0.00,,,0.27,WUHU216HW,2013-05-31 04:01:00,
2013-05-30 23:06:00,60.1,40.3,29.57,South,180,0.7,4.9,48,0.00,,,0.27,WUHU216HW,2013-05-31 04:06:00,
2013-05-30 23:11:00,59.8,40.0,29.57,SW,225,1.6,3.1,48,0.00,,,0.27,WUHU216HW,2013-05-31 04:11:00,
2013-05-30 23:16:00,59.6,39.9,29.58,SW,225,1.3,1.6,48,0.00,,,0.27,WUHU216HW,2013-05-31 04:16:00,
2013-05-30 23:21:00,59.2,39.5,29.57,SE,135,2.0,2.0,48,0.00,,,0.27,WUHU216HW,2013-05-31 04:21:00,
2013-05-30 23:26:00,59.0,38.8,29.57,East,90,1.1,2.0,47,0.00,,,0.27,WUHU216HW,2013-05-31 04:26:00,
2013-05-30 23:31:00,59.0,38.2,29.57,South,180,0.2,1.8,46,0.00,,,0.27,WUHU216HW,2013-05-31 04:31:00,
2013-05-30 23:36:00,59.2,37.2,29.57,South,180,2.0,2.0,44,0.00,,,0.27,WUHU216HW,2013-05-31 04:36:00,
2013-05-30 23:41:00,59.4,38.0,29.57,SSE,158,0.7,2.0,45,0.00,,,0.27,WUHU216HW,2013-05-31 04:41:00,
2013-05-30 23:46:00,59.2,37.8,29.57,South,180,0.9,2.0,45,0.00,,,0.27,WUHU216HW,2013-05-31 04:46:00,
2013-05-30 23:51:00,59.0,37.6,29.57,SW,225,1.1,2.5,45,0.00,,,0.27,WUHU216HW,2013-05-31 04:51:00,
2013-05-30 23:56:00,59.0,37.6,29.57,SW,225,1.1,2.7,45,0.00,,,0.27,WUHU216HW,2013-05-31 04:56:00,